Lid_Strength_Index
2 2 2 2 2 2 2 2 2 2 1 1 1 1 1 1 1 2 4 2 1 -2 1 4 4 4 3 5 4 3 7 8 7 7 8 5 7 5 3 5 5 4 4 3 2
3 3 3 3 2 2 2 2 2 2 2 1 1 1 1 1 3 4 0 -4 -3 -2 4 5 4 4 5 5 4 5 7 7 5 5 6 6 5 5 6 6 6 5 3 2 2
3 3 3 3 3 3 2 2 2 2 2 2 2 1 1 1 4 3 -2 -4 -3 -1 4 3 3 4 6 5 5 5 7 5 5 4 4 5 6 6 6 7 6 6 5 3 3
3 3 3 3 3 3 3 3 3 2 2 2 2 2 1 2 7 2 -2 -2 -3 3 4 4 4 5 6 6 5 7 5 5 5 4 4 5 6 8 7 6 4 4 3 3 3
4 4 4 4 3 3 3 3 3 3 3 2 2 2 2 4 3 -0 -2 -2 3 3 4 4 5 5 6 5 5 6 5 4 4 4 4 4 6 7 6 4 3 3 3 4 3
3 4 4 4 3 3 3 3 3 3 3 2 2 2 2 6 0 -1 -0 2 3 3 3 3 4 4 5 5 5 5 5 5 5 5 4 5 6 6 6 4 4 4 4 3 3
3 3 4 4 3 3 3 3 4 4 3 2 1 2 3 4 0 -0 -0 1 2 3 3 2 3 4 4 5 4 4 6 5 5 5 5 4 8 7 5 4 5 5 4 4 3
4 4 4 4 4 3 3 4 4 4 2 1 1 2 4 0 0 0 0 2 2 1 2 2 2 3 4 3 4 6 6 8 5 5 5 5 10 7 5 5 6 5 5 4 4
4 4 4 4 4 3 4 4 4 3 0 2 2 2 5 1 3 1 1 3 2 2 2 1 2 4 4 6 7 6 9 8 7 5 6 6 9 7 5 5 6 5 5 4 4
4 4 4 4 4 4 4 4 1 3 2 1 2 4 3 4 2 1 1 2 3 3 4 4 4 6 6 7 10 9 9 8 8 6 7 7 7 7 6 6 6 5 5 5 4
4 4 4 4 4 4 4 1 3 4 2 4 4 4 4 2 1 2 1 2 2 4 6 5 7 8 7 6 6 7 7 8 7 6 7 7 9 8 6 6 6 6 5 5 4
4 4 4 4 4 4 4 2 4 3 6 3 3 3 2 2 4 2 1 4 4 6 5 6 8 6 5 6 6 7 8 8 7 6 7 7 9 8 7 7 6 6 6 5 4
4 4 4 4 5 3 2 4 1 2 6 5 4 4 3 2 4 4 2 3 5 6 6 7 6 5 6 6 7 7 8 8 8 7 6 7 9 11 8 6 6 5 5 4 4
4 4 4 4 4 3 4 1 1 1 7 6 5 4 3 3 5 2 2 3 5 6 6 6 5 6 6 7 7 8 6 7 7 8 11 7 12 12 9 9 7 6 5 5 4
4 4 4 5 4 4 3 2 2 2 13 5 5 2 3 4 4 4 2 3 6 6 6 7 6 7 7 7 6 7 6 7 7 9 9 9 11 9 8 9 8 7 6 5 4
4 4 4 2 2 1 0 1 2 8 13 7 5 5 5 5 4 4 4 3 3 6 5 6 4 5 6 5 5 5 6 7 7 8 12 9 11 11 13 12 10 8 6 5 4
4 5 5 2 3 1 1 2 8 11 6 7 7 6 6 6 6 5 6 6 7 9 9 7 7 5 5 7 6 6 8 11 13 13 13 9 11 10 10 9 8 8 6 5 4
5 5 2 1 0 0 2 6 11 8 8 5 6 6 7 6 6 6 6 8 6 6 8 10 10 7 5 6 7 7 8 11 15 15 13 9 12 13 7 6 6 6 5 5 4
5 2 0 -0 -1 -0 4 9 9 8 6 7 6 8 8 7 6 6 7 7 6 6 9 9 9 6 6 5 6 7 9 7 10 9 12 13 10 7 6 6 5 5 6 6 5
4 1 1 -1 -1 1 6 9 7 5 5 6 8 7 9 8 8 7 7 6 6 5 5 7 10 7 6 5 5 6 6 10 9 14 15 11 11 12 8 7 6 6 6 5 4
3 4 1 -1 -0 4 8 7 6 4 4 7 7 8 7 8 7 8 8 6 5 5 5 6 8 8 7 7 8 7 8 8 8 10 13 15 13 7 7 6 6 6 5 5 5
4 6 0 -0 5 5 7 6 6 5 4 5 5 6 7 7 8 9 9 6 5 5 7 6 7 11 9 6 5 6 7 7 11 12 10 12 12 6 6 5 5 5 5 4 4
6 4 0 1 8 7 6 6 6 6 5 6 6 5 5 7 9 8 7 5 4 5 6 6 8 12 11 9 6 7 7 7 7 10 15 15 12 6 5 5 5 4 5 5 4
4 7 4 3 3 6 7 7 8 5 5 5 5 5 6 7 6 8 8 6 5 5 5 4 8 10 12 10 9 9 8 7 9 12 12 13 10 8 7 6 5 4 4 4 4
5 6 5 7 6 8 7 6 7 7 6 5 7 6 7 9 8 8 7 6 5 7 5 6 10 8 8 8 8 10 9 8 8 9 11 9 9 7 7 6 5 4 4 4 4
7 8 6 8 6 6 6 6 7 7 8 9 8 8 7 10 9 9 8 8 11 8 6 6 10 8 10 7 8 10 8 8 9 9 9 8 8 6 5 4 5 4 4 5 5
4 5 7 8 7 7 6 6 7 6 6 6 7 8 8 7 6 6 5 6 6 9 9 10 9 11 12 8 9 13 9 8 8 8 9 10 7 5 6 5 5 4 4 4 4